Weather History for PAEI - February, 2013

Change the Weather History Date:

Wednesday, February 13, 2013

  Actual Average Record
Temperature  
Mean Temperature -3 °F -  
Max Temperature 7 °F 5 °F 38 °F (2012)
Min Temperature -13 °F -13 °F -56 °F (1950)
Degree Days  
Heating Degree Days 68    
Moisture  
Dew Point -9 °F    
Average Humidity 80    
Maximum Humidity 85    
Minimum Humidity 76    
Precipitation  
Precipitation 0.00 in - - ()
Sea Level Pressure  
Sea Level Pressure 29.82 in    
Wind  
Wind Speed 0 mph (North)    
Max Wind Speed 0 mph    
Max Gust Speed -    
Visibility 10 miles    
Events      
Averages and records for this station are not official NWS values.
T = Trace of Precipitation, MM = Missing Value Source: NWS Daily Summary

Daily Weather History Graph

Daily Weather History Graph

Search for Another Location

Airport or City:

Trip Planner

Search our weather history database for the weather conditions in past years. The results will help you decide how hot, cold, wet, or windy it might be!

Date:

Astronomy

Feb. 13, 2013 Rise Set
Actual Time 8:51 AM AKST 5:14 PM AKST
Civil Twilight 7:58 AM AKST 6:07 PM AKST
Nautical Twilight 7:01 AM AKST 7:05 PM AKST
Astronomical Twilight 6:05 AM AKST 8:01 PM AKST
Moon 8:43 AM AKST (2/13) 11:25 PM AKST (2/13)
Length of Visible Light 10h 09m
Length of Day
8h 23m
Waxing Crescent, 15% of the Moon is Illuminated
Feb 13
Waxing Crescent
Feb 17
First Quarter
Feb 25
Full
Mar 4
Last Quarter
Mar 11
New

Hourly Weather History & Observations

Time (AKST) Temp. Dew Point Humidity Pressure Visibility Wind Dir Wind Speed Gust Speed Precip Events Conditions
12:55 AM -13.7 °F -19.3 °F 76% 29.84 in 10.0 mi Calm Calm - N/A   Clear
1:55 AM -11.9 °F -17.3 °F 77% 29.84 in 10.0 mi Calm Calm - N/A   Clear
2:55 AM -11.0 °F -16.2 °F 78% 29.83 in 10.0 mi Calm Calm - N/A   Partly Cloudy
3:55 AM -9.6 °F -14.6 °F 78% 29.83 in 10.0 mi Calm Calm - N/A   Scattered Clouds
4:55 AM -10.8 °F -16.1 °F 78% 29.83 in 10.0 mi Calm Calm - N/A   Clear
5:55 AM -10.1 °F -15.2 °F 78% 29.83 in 10.0 mi Calm Calm - N/A   Clear
6:55 AM -10.1 °F -15.3 °F 78% 29.83 in 10.0 mi Calm Calm - N/A   Partly Cloudy
7:55 AM -9.8 °F -14.8 °F 78% 29.82 in 10.0 mi Calm Calm - N/A   Mostly Cloudy
8:55 AM -9.9 °F -15.0 °F 78% 29.82 in 10.0 mi Calm Calm - N/A   Mostly Cloudy
9:55 AM -9.6 °F -14.6 °F 78% 29.83 in 10.0 mi Calm Calm - N/A   Clear
10:55 AM -8.5 °F -13.4 °F 79% 29.83 in 10.0 mi Calm Calm - N/A   Mostly Cloudy
11:55 AM -4.4 °F -9.0 °F 80% 29.83 in 10.0 mi Calm Calm - N/A   Scattered Clouds
12:55 PM -0.4 °F -4.0 °F 85% 29.84 in 10.0 mi Calm Calm - N/A   Mostly Cloudy
1:55 PM 3.7 °F -0.0 °F 84% 29.82 in 10.0 mi Calm Calm - N/A   Overcast
2:55 PM 7.0 °F 3.2 °F 84% 29.81 in 10.0 mi Calm Calm - N/A   Scattered Clouds
3:55 PM 6.4 °F 2.3 °F 83% 29.79 in 10.0 mi Calm Calm - N/A   Scattered Clouds
4:55 PM 4.1 °F -0.0 °F 83% 29.80 in 10.0 mi Calm Calm - N/A   Scattered Clouds
5:55 PM 1.4 °F -2.6 °F 83% 29.80 in 10.0 mi Calm Calm - N/A   Scattered Clouds
6:55 PM 0.3 °F -4.0 °F 82% 29.79 in 10.0 mi Calm Calm - N/A   Scattered Clouds
7:55 PM -1.5 °F -6.0 °F 81% 29.79 in 10.0 mi Calm Calm - N/A   Clear
8:55 PM -3.8 °F -8.1 °F 82% 29.79 in 10.0 mi Calm Calm - N/A   Clear
9:55 PM -5.6 °F -10.5 °F 79% 29.80 in 10.0 mi Calm Calm - N/A   Partly Cloudy
10:55 PM -3.5 °F -8.1 °F 80% 29.80 in 10.0 mi Calm Calm - N/A   Clear
11:55 PM -2.2 °F -6.7 °F 81% 29.79 in 10.0 mi Calm Calm - N/A   Partly Cloudy